Nanticoke River Seaford DE USA current weather conditions

sailwx.info

Wind from 308 at 0 knots gusting 0

Air temperature 13.3° C
Dewpoint 13.2° C

Last reported at 2020-Sep-24 07:05 UTC.
Time now 2020-Sep-24 07:45 UTC

Location: N 38°39' W 075°42'.
View on Google Maps.

See reports from other nearby stations

  
Tides and Currents Weather Stations Pressure Air Temp Water Temp Dewpoint Dewpoint Depression Visibility Wind Speed Wind Dir Waves Ship Positions
date/time (UTC)wind fromknots sea level pressurealtimeterstation pressurevisibilityair tempwater tempwave heightnotes
2020-Sep-24 07:05 308 0 gusting 0 13.3
2020-Sep-24 07:00 342 0 gusting 0 13.3
2020-Sep-24 06:55 342 0 gusting 0 13.3
2020-Sep-24 06:50 342 0 gusting 0 13.2
2020-Sep-24 06:45 342 0 gusting 1 13.3
2020-Sep-24 06:40 334 0 gusting 1 13.3
2020-Sep-24 06:35 316 0 gusting 0 13.4
2020-Sep-24 06:30 285 0 gusting 0 12.9
2020-Sep-24 06:25 294 0 gusting 1 13.2
2020-Sep-24 06:20 337 0 gusting 1 13.3
2020-Sep-24 06:15 002 0 gusting 1 12.8
2020-Sep-24 06:10 13.0
2020-Sep-24 06:05 355 0 gusting 0 13.3
2020-Sep-24 06:00 13.3
2020-Sep-24 05:55 332 0 gusting 0 13.5
2020-Sep-24 05:50 031 0 gusting 0 13.4
2020-Sep-24 05:45 13.2
2020-Sep-24 05:40 13.8
2020-Sep-24 05:35 005 0 gusting 1 13.7
2020-Sep-24 05:30 202 0 gusting 0 13.6
2020-Sep-24 05:25 028 0 gusting 1 13.4
2020-Sep-24 05:20 076 0 gusting 0 13.0
2020-Sep-24 05:15 076 0 gusting 1 13.0
2020-Sep-24 05:10 076 0 gusting 0 12.6
2020-Sep-24 05:05 076 0 gusting 0 12.8
2020-Sep-24 05:00 076 0 gusting 1 12.8
2020-Sep-24 04:55 076 0 gusting 1 12.4
2020-Sep-24 04:50 12.4
2020-Sep-24 04:45 076 0 gusting 1 12.9
2020-Sep-24 04:35 118 0 gusting 0 12.8
2020-Sep-24 04:30 071 0 gusting 0 13.3
2020-Sep-24 04:25 068 0 gusting 1 13.0
2020-Sep-24 04:20 108 0 gusting 1 13.1
2020-Sep-24 04:15 100 0 gusting 1 12.9
2020-Sep-24 04:10 100 0 gusting 1 12.9
2020-Sep-24 04:05 13.1
2020-Sep-24 04:00 322 0 gusting 0 13.5
2020-Sep-24 03:55 313 0 gusting 1 13.4
2020-Sep-24 03:50 283 0 gusting 1 13.5
2020-Sep-24 03:45 283 1 gusting 1 13.9
2020-Sep-24 03:40 297 1 gusting 1 13.7
2020-Sep-24 03:35 301 1 gusting 1 14.0
2020-Sep-24 03:30 269 0 gusting 1 13.8
2020-Sep-24 03:25 278 0 gusting 0 14.4
2020-Sep-24 03:20 295 0 gusting 1 14.7
2020-Sep-24 03:15 289 1 gusting 1 14.8
2020-Sep-24 03:10 282 1 gusting 1 14.9
2020-Sep-24 03:05 281 1 gusting 1 14.9
2020-Sep-24 03:00 283 1 gusting 1 14.9
2020-Sep-24 02:55 275 1 gusting 1 15.2
2020-Sep-24 02:50 269 1 gusting 2 15.0
2020-Sep-24 02:45 267 0 gusting 1 14.7
2020-Sep-24 02:40 284 0 gusting 1 14.9
2020-Sep-24 02:35 284 0 gusting 1 14.7
2020-Sep-24 02:30 283 0 gusting 1 15.0
2020-Sep-24 02:25 292 0 gusting 1 15.3
2020-Sep-24 02:20 284 1 gusting 2 15.5
2020-Sep-24 02:15 263 1 gusting 1 15.3
2020-Sep-24 02:10 273 1 gusting 1 15.1
2020-Sep-24 02:05 288 1 gusting 1 15.3
2020-Sep-24 02:00 267 0 gusting 0 15.6
2020-Sep-24 01:55 253 0 gusting 1 15.5
2020-Sep-24 01:50 272 0 gusting 1 15.2
2020-Sep-24 01:45 275 0 gusting 1 15.4
2020-Sep-24 01:40 290 0 gusting 0 15.6
2020-Sep-24 01:35 203 0 gusting 1 15.7
2020-Sep-24 01:30 194 0 gusting 1 15.8
2020-Sep-24 01:25 16.0
2020-Sep-24 01:20 242 0 gusting 1 16.1
2020-Sep-24 01:15 246 0 gusting 1 16.1
2020-Sep-24 01:10 249 0 gusting 1 16.2
2020-Sep-24 01:05 249 0 gusting 0 16.2
2020-Sep-24 01:00 245 0 gusting 0 16.1
2020-Sep-24 00:55 272 0 gusting 1 15.5
2020-Sep-24 00:50 285 0 gusting 1 15.5
2020-Sep-24 00:45 285 0 gusting 1 15.8
2020-Sep-24 00:40 292 0 gusting 1 16.2
2020-Sep-24 00:35 304 1 gusting 1 16.4
2020-Sep-24 00:30 297 1 gusting 2 16.7
2020-Sep-24 00:25 276 0 gusting 1 16.9
2020-Sep-24 00:20 262 1 gusting 2 16.9
2020-Sep-24 00:15 279 1 gusting 1 17.1
2020-Sep-24 00:10 276 1 gusting 2 17.4
2020-Sep-24 00:05 250 1 gusting 2 17.3
2020-Sep-24 00:00 250 0 gusting 1 17.3
2020-Sep-23 23:55 252 0 gusting 1 17.3
2020-Sep-23 23:50 258 0 gusting 1 17.4
2020-Sep-23 23:45 264 0 gusting 1 17.4
2020-Sep-23 23:40 243 0 gusting 0 17.7
2020-Sep-23 23:35 241 0 gusting 1 17.7
2020-Sep-23 23:30 250 0 gusting 1 17.6
2020-Sep-23 23:25 246 0 gusting 1 17.6
2020-Sep-23 23:20 199 0 gusting 1 18.0
2020-Sep-23 23:15 213 0 gusting 1 18.3
2020-Sep-23 23:10 222 0 gusting 1 18.6
2020-Sep-23 23:05 226 0 gusting 1 18.8
2020-Sep-23 23:00 247 0 gusting 1 19.0
2020-Sep-23 22:55 286 0 gusting 1 19.3
2020-Sep-23 22:50 276 0 gusting 1 20.0
2020-Sep-23 22:45 267 1 gusting 2 20.6
2020-Sep-23 22:40 260 1 gusting 3 20.9
2020-Sep-23 22:35 260 1 gusting 2 21.3
2020-Sep-23 22:30 262 1 gusting 2 21.6
2020-Sep-23 22:25 274 2 gusting 4 22.3
2020-Sep-23 22:20 275 3 gusting 4 22.7
2020-Sep-23 22:15 271 3 gusting 4 23.1
2020-Sep-23 22:10 274 3 gusting 5 23.2
2020-Sep-23 22:05 266 5 gusting 6 23.5
2020-Sep-23 22:00 262 4 gusting 6 23.7
2020-Sep-23 21:55 260 4 gusting 6 23.9
2020-Sep-23 21:50 269 4 gusting 6 23.9
2020-Sep-23 21:45 258 5 gusting 7 23.9
2020-Sep-23 21:40 256 7 gusting 9 24.0
2020-Sep-23 21:35 260 5 gusting 8 24.2
2020-Sep-23 21:30 266 5 gusting 8 24.1
2020-Sep-23 21:25 255 6 gusting 10 24.1
2020-Sep-23 21:20 259 6 gusting 9 24.2
2020-Sep-23 21:15 255 6 gusting 9 24.3
2020-Sep-23 21:10 259 7 gusting 11 24.4
2020-Sep-23 21:05 260 7 gusting 10 24.5
2020-Sep-23 21:00 266 7 gusting 13 24.7
2020-Sep-23 20:55 265 7 gusting 10 24.7
2020-Sep-23 20:50 257 7 gusting 11 24.5
2020-Sep-23 20:45 254 7 gusting 11 24.5
2020-Sep-23 20:40 254 7 gusting 11 24.4
2020-Sep-23 20:35 264 8 gusting 12 24.5
2020-Sep-23 20:30 270 8 gusting 11 24.6
2020-Sep-23 20:25 270 6 gusting 10 24.5
2020-Sep-23 20:20 252 7 gusting 9 24.5
2020-Sep-23 20:15 252 6 gusting 10 24.4
2020-Sep-23 20:10 269 7 gusting 10 24.6
2020-Sep-23 20:05 248 6 gusting 8 24.4
2020-Sep-23 20:00 260 7 gusting 11 24.7
2020-Sep-23 19:55 258 7 gusting 11 24.5
2020-Sep-23 19:50 252 6 gusting 12 24.8
2020-Sep-23 19:45 254 6 gusting 11 24.9
2020-Sep-23 19:40 275 5 gusting 10 25.4
2020-Sep-23 19:35 263 6 gusting 10 25.1
2020-Sep-23 19:30 260 8 gusting 11 24.9
2020-Sep-23 19:25 263 7 gusting 15 25.0
2020-Sep-23 19:20 264 6 gusting 11 25.1
2020-Sep-23 19:15 266 6 gusting 10 24.9
2020-Sep-23 19:10 267 6 gusting 10 25.1
2020-Sep-23 19:05 271 7 gusting 10 25.0
2020-Sep-23 19:00 254 5 gusting 8 24.8
2020-Sep-23 18:55 266 6 gusting 9 24.8
2020-Sep-23 18:50 265 6 gusting 8 24.9
2020-Sep-23 18:45 269 5 gusting 9 24.8
2020-Sep-23 18:40 271 4 gusting 8 24.8
2020-Sep-23 18:35 273 4 gusting 7 24.7
2020-Sep-23 18:30 272 6 gusting 11 25.0
2020-Sep-23 18:25 261 6 gusting 11 24.8
2020-Sep-23 18:20 269 5 gusting 10 24.7
2020-Sep-23 18:15 276 6 gusting 10 24.8
2020-Sep-23 18:10 275 7 gusting 10 24.6
2020-Sep-23 18:05 275 6 gusting 8 24.7
2020-Sep-23 18:00 287 6 gusting 8 24.4
2020-Sep-23 17:55 271 6 gusting 9 24.7
2020-Sep-23 17:50 269 5 gusting 9 24.4
2020-Sep-23 17:45 281 6 gusting 11 24.5
2020-Sep-23 17:40 267 7 gusting 12 24.7
2020-Sep-23 17:35 267 5 gusting 8 24.9
2020-Sep-23 17:30 279 4 gusting 7 24.5
2020-Sep-23 17:25 277 6 gusting 9 24.7
2020-Sep-23 17:20 282 5 gusting 9 24.4
2020-Sep-23 17:15 272 6 gusting 9 24.1
2020-Sep-23 17:10 272 7 gusting 10 24.1
2020-Sep-23 17:05 269 6 gusting 10 24.2
2020-Sep-23 17:00 294 4 gusting 7 24.3
2020-Sep-23 16:55 279 6 gusting 11 24.3
2020-Sep-23 16:50 279 6 gusting 11 24.4
2020-Sep-23 16:45 312 4 gusting 8 24.4
2020-Sep-23 16:40 321 4 gusting 7 24.5
2020-Sep-23 16:35 292 5 gusting 8 24.2
2020-Sep-23 16:30 289 4 gusting 7 24.1
2020-Sep-23 16:25 313 4 gusting 7 23.9
2020-Sep-23 16:20 336 5 gusting 9 23.7
2020-Sep-23 16:15 319 4 gusting 9 24.0
2020-Sep-23 16:10 310 4 gusting 8 24.1
2020-Sep-23 16:05 310 4 gusting 7 23.8
2020-Sep-23 16:00 291 5 gusting 11 23.5
2020-Sep-23 15:55 298 6 gusting 9 23.3
2020-Sep-23 15:50 290 6 gusting 11 23.4
2020-Sep-23 15:45 278 6 gusting 11 23.5
2020-Sep-23 15:40 308 4 gusting 8 23.3
2020-Sep-23 15:35 281 6 gusting 12 22.9
2020-Sep-23 15:30 289 5 gusting 8 22.9
2020-Sep-23 15:25 296 5 gusting 9 22.6
2020-Sep-23 15:20 303 4 gusting 8 22.7
2020-Sep-23 15:15 320 4 gusting 7 22.5
2020-Sep-23 15:10 281 6 gusting 10 22.1
2020-Sep-23 15:05 301 4 gusting 8 22.2
2020-Sep-23 15:00 317 4 gusting 9 21.9
2020-Sep-23 14:55 310 4 gusting 8 22.0
2020-Sep-23 14:50 325 4 gusting 9 21.8
2020-Sep-23 14:45 304 5 gusting 8 21.4
2020-Sep-23 14:40 296 5 gusting 10 21.3
2020-Sep-23 14:35 284 6 gusting 10 21.2
2020-Sep-23 14:30 290 5 gusting 8 20.9
2020-Sep-23 14:25 289 6 gusting 11 20.8
2020-Sep-23 14:20 289 5 gusting 9 20.9
2020-Sep-23 14:15 291 5 gusting 11 20.7
2020-Sep-23 14:10 301 5 gusting 9 20.5
2020-Sep-23 14:05 297 5 gusting 8 20.1
2020-Sep-23 14:00 298 5 gusting 7 20.2
2020-Sep-23 13:55 292 4 gusting 8 19.8
2020-Sep-23 13:50 292 5 gusting 9 19.5
2020-Sep-23 13:45 302 4 gusting 7 19.4
2020-Sep-23 13:40 298 4 gusting 9 19.1
2020-Sep-23 13:35 291 3 gusting 7 18.7
2020-Sep-23 13:30 294 4 gusting 8 18.5
2020-Sep-23 13:25 288 3 gusting 6 18.2
2020-Sep-23 13:20 295 3 gusting 5 18.0
2020-Sep-23 13:15 303 3 gusting 7 17.7
2020-Sep-23 13:10 296 3 gusting 5 17.4
2020-Sep-23 13:05 308 3 gusting 5 17.0
2020-Sep-23 13:00 300 3 gusting 7 16.7
2020-Sep-23 12:55 301 3 gusting 5 16.4
2020-Sep-23 12:50 299 2 gusting 4 16.1
2020-Sep-23 12:45 296 2 gusting 4 15.7
2020-Sep-23 12:40 292 3 gusting 6 15.3
2020-Sep-23 12:35 293 2 gusting 4 15.0
2020-Sep-23 12:30 291 2 gusting 5 14.8
2020-Sep-23 12:25 289 2 gusting 3 14.5
2020-Sep-23 12:20 283 2 gusting 3 14.2
2020-Sep-23 12:15 276 1 gusting 2 13.9
2020-Sep-23 12:10 273 2 gusting 2 13.5
2020-Sep-23 12:05 271 2 gusting 2 13.0
2020-Sep-23 12:00 268 2 gusting 2 12.4
2020-Sep-23 11:55 263 1 gusting 2 11.7
2020-Sep-23 11:50 259 1 gusting 2 11.2
2020-Sep-23 11:45 267 1 gusting 2 10.9
2020-Sep-23 11:40 274 1 gusting 2 10.3
2020-Sep-23 11:35 273 0 gusting 1 9.5
2020-Sep-23 11:30 9.1
2020-Sep-23 11:25 8.8
2020-Sep-23 11:20 8.5
2020-Sep-23 11:15 8.3
2020-Sep-23 11:10 7.8
2020-Sep-23 11:05 272 0 gusting 0 7.7
2020-Sep-23 11:00 273 0 gusting 0 7.7
2020-Sep-23 10:55 8.0
2020-Sep-23 10:50 8.1
2020-Sep-23 10:45 8.1
2020-Sep-23 10:40 7.9
2020-Sep-23 10:35 273 0 gusting 0 7.7
2020-Sep-23 10:30 273 0 gusting 0 7.8
2020-Sep-23 10:25 8.3
2020-Sep-23 10:20 273 0 gusting 0 8.4
2020-Sep-23 10:15 280 1 gusting 1 8.6
2020-Sep-23 10:10 291 1 gusting 1 8.6
2020-Sep-23 10:05 285 0 gusting 1 8.8
2020-Sep-23 10:00 306 0 gusting 1 9.1
2020-Sep-23 09:55 305 1 gusting 1 9.0
2020-Sep-23 09:50 303 1 gusting 1 8.8
2020-Sep-23 09:45 295 1 gusting 1 8.7
2020-Sep-23 09:40 289 1 gusting 1 8.8
2020-Sep-23 09:35 302 1 gusting 1 8.8
2020-Sep-23 09:30 294 1 gusting 1 8.7
2020-Sep-23 09:25 286 1 gusting 1 8.4
2020-Sep-23 09:20 284 0 gusting 1 8.2
2020-Sep-23 09:15 303 0 gusting 0 8.4
2020-Sep-23 09:10 260 0 gusting 1 8.5
2020-Sep-23 09:05 264 0 gusting 1 9.1
2020-Sep-23 09:00 298 1 gusting 1 9.5
2020-Sep-23 08:55 292 1 gusting 1 9.7
2020-Sep-23 08:50 305 0 gusting 1 10.1
2020-Sep-23 08:45 305 1 gusting 1 10.5
2020-Sep-23 08:40 315 1 gusting 1 10.4
2020-Sep-23 08:35 306 1 gusting 1 10.1
2020-Sep-23 08:30 313 1 gusting 1 10.3
2020-Sep-23 08:25 313 1 gusting 1 10.2
2020-Sep-23 08:20 308 1 gusting 2 10.2
2020-Sep-23 08:15 309 1 gusting 2 10.0
2020-Sep-23 08:10 310 0 gusting 1 9.6
2020-Sep-23 08:05 336 0 gusting 0 10.0
2020-Sep-23 08:00 10.3
2020-Sep-23 07:55 349 0 gusting 0 10.9
2020-Sep-23 07:50 358 0 gusting 1 11.4
2020-Sep-23 07:45 327 1 gusting 2 11.0
2020-Sep-23 07:40 308 1 gusting 2 10.8
2020-Sep-23 07:35 305 1 gusting 2 10.9
2020-Sep-23 07:30 312 1 gusting 2 10.8
2020-Sep-23 07:25 302 1 gusting 2 10.8
2020-Sep-23 07:20 293 1 gusting 2 11.3
2020-Sep-23 07:15 305 1 gusting 2 11.7
2020-Sep-23 07:10 329 1 gusting 2 11.6
2020-Sep-23 07:05 326 1 gusting 2 11.5
2020-Sep-23 07:00 311 1 gusting 2 11.5
2020-Sep-23 06:55 321 1 gusting 2 11.2
2020-Sep-23 06:50 319 1 gusting 2 10.9
2020-Sep-23 06:45 311 1 gusting 1 11.0
2020-Sep-23 06:40 309 1 gusting 2 10.7
2020-Sep-23 06:35 300 1 gusting 1 11.0
2020-Sep-23 06:30 318 1 gusting 2 11.1
2020-Sep-23 06:25 294 1 gusting 2 10.9
2020-Sep-23 06:20 302 1 gusting 2 11.0
2020-Sep-23 06:15 294 1 gusting 2 11.1
2020-Sep-23 06:10 295 1 gusting 2 11.1
2020-Sep-23 06:05 299 1 gusting 2 10.8
2020-Sep-23 06:00 300 1 gusting 2 10.6
2020-Sep-23 05:55 294 1 gusting 1 10.8
2020-Sep-23 05:50 311 1 gusting 1 11.3
2020-Sep-23 05:45 314 1 gusting 2 11.2
2020-Sep-23 05:40 309 1 gusting 2 11.0
2020-Sep-23 05:35 293 1 gusting 2 10.8
2020-Sep-23 05:30 311 1 gusting 2 10.8
2020-Sep-23 05:25 295 2 gusting 2 10.8
2020-Sep-23 05:20 310 1 gusting 2 10.7
2020-Sep-23 05:15 303 1 gusting 2 10.4
2020-Sep-23 05:10 300 1 gusting 2 10.9
2020-Sep-23 05:05 311 1 gusting 2 10.9
2020-Sep-23 05:00 307 1 gusting 2 10.7
2020-Sep-23 04:55 305 1 gusting 2 10.8
2020-Sep-23 04:50 307 1 gusting 2 10.5
2020-Sep-23 04:45 307 1 gusting 1 10.4
2020-Sep-23 04:40 314 1 gusting 1 10.2
2020-Sep-23 04:35 308 1 gusting 2 10.0
2020-Sep-23 04:30 303 1 gusting 2 9.8
2020-Sep-23 04:25 299 1 gusting 1 9.9
2020-Sep-23 04:20 299 1 gusting 1 9.9
2020-Sep-23 04:15 291 1 gusting 1 9.8
2020-Sep-23 04:10 300 1 gusting 1 9.8
2020-Sep-23 04:05 299 1 gusting 2 9.9
2020-Sep-23 04:00 293 1 gusting 2 10.1
2020-Sep-23 03:55 301 1 gusting 1 10.2
2020-Sep-23 03:50 307 1 gusting 2 10.1
2020-Sep-23 03:45 298 1 gusting 2 10.1
2020-Sep-23 03:40 294 1 gusting 1 10.1
2020-Sep-23 03:35 295 1 gusting 1 10.3
2020-Sep-23 03:30 306 1 gusting 1 10.5
2020-Sep-23 03:25 311 1 gusting 2 10.7
2020-Sep-23 03:20 323 1 gusting 2 10.4
2020-Sep-23 03:15 310 1 gusting 1 10.0
2020-Sep-23 03:10 301 1 gusting 1 10.1
2020-Sep-23 03:05 302 0 gusting 1 9.9
2020-Sep-23 03:00 309 1 gusting 1 9.7
2020-Sep-23 02:55 307 1 gusting 2 9.6
2020-Sep-23 02:50 293 1 gusting 1 9.9
2020-Sep-23 02:45 288 0 gusting 1 10.2
2020-Sep-23 02:40 288 0 gusting 1 10.6
2020-Sep-23 02:35 289 0 gusting 1 10.6
2020-Sep-23 02:30 291 0 gusting 1 10.6
2020-Sep-23 02:25 281 0 gusting 0 10.6
2020-Sep-23 02:20 275 0 gusting 1 10.5
2020-Sep-23 02:15 270 0 gusting 1 10.6
2020-Sep-23 02:10 288 0 gusting 0 10.6
2020-Sep-23 02:05 287 0 gusting 1 10.6
2020-Sep-23 02:00 283 0 gusting 2 10.5
2020-Sep-23 01:55 259 0 gusting 1 10.4
2020-Sep-23 01:50 294 0 gusting 0 10.4
2020-Sep-23 01:45 10.4
2020-Sep-23 01:40 294 0 gusting 0 10.6
2020-Sep-23 01:35 294 0 gusting 0 10.6
2020-Sep-23 01:30 294 0 gusting 0 10.9
2020-Sep-23 01:25 294 0 gusting 0 10.9
2020-Sep-23 01:20 294 0 gusting 1 11.1
2020-Sep-23 01:15 293 1 gusting 1 11.5
2020-Sep-23 01:10 295 1 gusting 1 11.4
2020-Sep-23 01:05 276 1 gusting 1 11.2
2020-Sep-23 01:00 285 1 gusting 2 11.5
2020-Sep-23 00:55 278 1 gusting 1 11.5
2020-Sep-23 00:50 292 1 gusting 1 11.7
2020-Sep-23 00:45 304 1 gusting 2 12.1
2020-Sep-23 00:40 307 1 gusting 2 12.0
2020-Sep-23 00:35 303 1 gusting 2 12.0
2020-Sep-23 00:30 302 1 gusting 2 12.4
2020-Sep-23 00:25 295 2 gusting 3 12.7
2020-Sep-23 00:20 275 3 gusting 4 12.8
2020-Sep-23 00:15 275 2 gusting 3 12.5
2020-Sep-23 00:10 274 2 gusting 3 12.8
2020-Sep-23 00:05 277 2 gusting 2 12.9
2020-Sep-23 00:00 277 2 gusting 3 13.3
2020-Sep-22 23:55 279 2 gusting 3 13.2
2020-Sep-22 23:50 281 3 gusting 3 13.2
2020-Sep-22 23:45 279 3 gusting 4 13.4
2020-Sep-22 23:40 278 3 gusting 3 13.5
2020-Sep-22 23:35 277 2 gusting 3 13.6
2020-Sep-22 23:30 278 2 gusting 3 13.8
2020-Sep-22 23:25 284 2 gusting 2 14.2
2020-Sep-22 23:20 284 2 gusting 2 14.4
2020-Sep-22 23:05 288 3 gusting 3 15.1
2020-Sep-22 23:00 285 2 gusting 3 15.6
2020-Sep-22 22:55 280 2 gusting 3 16.0
2020-Sep-22 22:50 275 2 gusting 3 16.5
2020-Sep-22 22:45 276 2 gusting 4 17.0
2020-Sep-22 22:40 272 3 gusting 4 17.4
2020-Sep-22 22:35 271 3 gusting 4 18.0
2020-Sep-22 22:30 269 3 gusting 5 18.4
2020-Sep-22 22:25 272 3 gusting 6 18.7
2020-Sep-22 22:20 277 4 gusting 5 19.0
2020-Sep-22 22:15 275 4 gusting 6 19.3
2020-Sep-22 22:10 279 3 gusting 5 19.5
2020-Sep-22 22:05 274 5 gusting 8 19.7
2020-Sep-22 22:00 278 5 gusting 10 19.8
2020-Sep-22 21:55 278 5 gusting 10 20.0
2020-Sep-22 21:50 274 6 gusting 9 20.1
2020-Sep-22 21:45 278 6 gusting 9 20.2
2020-Sep-22 21:40 280 5 gusting 9 20.4
2020-Sep-22 21:35 279 5 gusting 8 20.4
2020-Sep-22 21:30 276 6 gusting 10 20.4
2020-Sep-22 21:25 278 6 gusting 9 20.6
2020-Sep-22 21:20 292 5 gusting 8 20.7
2020-Sep-22 21:15 286 6 gusting 11 20.7
2020-Sep-22 21:10 282 6 gusting 10 20.8
2020-Sep-22 21:05 285 6 gusting 11 20.8
2020-Sep-22 21:00 285 6 gusting 9 20.8
2020-Sep-22 20:55 293 5 gusting 11 21.1
2020-Sep-22 20:50 299 5 gusting 9 20.9
2020-Sep-22 20:45 294 6 gusting 11 21.0
2020-Sep-22 20:40 294 5 gusting 8 20.9
2020-Sep-22 20:35 293 7 gusting 10 20.9
2020-Sep-22 20:30 302 5 gusting 9 20.9
2020-Sep-22 20:25 296 5 gusting 10 20.9
2020-Sep-22 20:20 284 6 gusting 10 20.9
2020-Sep-22 20:15 277 6 gusting 9 21.0
2020-Sep-22 20:10 305 4 gusting 8 20.9
2020-Sep-22 20:05 298 6 gusting 11 20.9
2020-Sep-22 20:00 287 7 gusting 11 21.1
2020-Sep-22 19:55 295 4 gusting 7 20.8
2020-Sep-22 19:50 288 6 gusting 10 20.9
2020-Sep-22 19:45 296 6 gusting 10 20.9
2020-Sep-22 19:40 309 6 gusting 9 21.2
2020-Sep-22 19:35 302 6 gusting 10 20.9
2020-Sep-22 19:30 310 6 gusting 11 20.9
2020-Sep-22 19:25 312 5 gusting 10 21.2
2020-Sep-22 19:20 294 6 gusting 10 20.9
2020-Sep-22 19:15 318 5 gusting 10 20.7
2020-Sep-22 19:10 305 7 gusting 12 21.0
2020-Sep-22 19:05 311 5 gusting 9 20.9
2020-Sep-22 19:00 300 7 gusting 12 20.8
2020-Sep-22 18:55 283 7 gusting 13 20.7
2020-Sep-22 18:50 292 7 gusting 12 20.7
2020-Sep-22 18:45 291 8 gusting 12 20.8
2020-Sep-22 18:40 292 8 gusting 15 20.8
2020-Sep-22 18:35 306 5 gusting 10 21.0
2020-Sep-22 18:30 313 6 gusting 11 20.8
2020-Sep-22 18:25 305 5 gusting 11 21.0
2020-Sep-22 18:20 308 5 gusting 11 20.8
2020-Sep-22 18:15 309 5 gusting 11 20.9
2020-Sep-22 18:10 282 7 gusting 12 20.5
2020-Sep-22 18:05 285 7 gusting 12 20.5
2020-Sep-22 18:00 294 7 gusting 12 20.6
2020-Sep-22 17:55 318 5 gusting 9 21.0
2020-Sep-22 17:50 315 5 gusting 11 20.8
2020-Sep-22 17:45 317 6 gusting 11 20.8
2020-Sep-22 17:40 317 4 gusting 9 20.4
2020-Sep-22 17:35 295 7 gusting 12 20.5
2020-Sep-22 17:30 339 5 gusting 8 20.2
2020-Sep-22 17:25 327 6 gusting 11 20.4
2020-Sep-22 17:20 329 5 gusting 10 20.3
2020-Sep-22 17:15 310 5 gusting 12 20.2
2020-Sep-22 17:10 300 6 gusting 11 20.2
2020-Sep-22 17:05 305 6 gusting 11 20.1
2020-Sep-22 17:00 304 6 gusting 12 20.0
2020-Sep-22 16:55 313 7 gusting 11 19.9
2020-Sep-22 16:50 321 5 gusting 9 19.8
2020-Sep-22 16:45 309 6 gusting 12 19.8
2020-Sep-22 16:40 307 7 gusting 11 19.6
2020-Sep-22 16:35 334 5 gusting 10 19.6
2020-Sep-22 16:30 310 5 gusting 12 19.4
2020-Sep-22 16:25 314 6 gusting 10 19.4
2020-Sep-22 16:20 316 5 gusting 11 19.3
2020-Sep-22 16:15 316 6 gusting 10 19.2
2020-Sep-22 16:10 317 5 gusting 13 19.2
2020-Sep-22 16:05 294 6 gusting 9 18.9
2020-Sep-22 16:00 303 6 gusting 10 18.8
2020-Sep-22 15:55 308 6 gusting 10 18.9
2020-Sep-22 15:50 323 5 gusting 10 18.7
2020-Sep-22 15:45 319 5 gusting 10 18.4
2020-Sep-22 15:40 320 5 gusting 9 18.5
2020-Sep-22 15:35 312 6 gusting 10 18.4
2020-Sep-22 15:30 307 6 gusting 11 18.3
2020-Sep-22 15:25 319 5 gusting 9 18.2
2020-Sep-22 15:20 318 4 gusting 8 18.1
2020-Sep-22 15:15 317 5 gusting 9 18.0
2020-Sep-22 15:10 303 5 gusting 8 18.0
2020-Sep-22 15:05 325 4 gusting 8 17.6
2020-Sep-22 15:00 315 4 gusting 8 17.6
2020-Sep-22 14:55 312 4 gusting 8 17.7
2020-Sep-22 14:50 299 5 gusting 10 17.5
2020-Sep-22 14:45 316 5 gusting 8 16.9
2020-Sep-22 14:40 326 4 gusting 8 17.0
2020-Sep-22 14:35 307 5 gusting 10 16.9
2020-Sep-22 14:30 310 5 gusting 7 16.7
2020-Sep-22 14:25 358 3 gusting 8 16.3
2020-Sep-22 14:20 341 4 gusting 7 16.4
2020-Sep-22 14:15 306 5 gusting 8 16.2
2020-Sep-22 14:10 339 3 gusting 6 16.1
2020-Sep-22 14:05 325 3 gusting 8 15.9
2020-Sep-22 14:00 334 4 gusting 8 15.5
2020-Sep-22 13:55 320 4 gusting 6 15.3
2020-Sep-22 13:50 340 3 gusting 6 15.0
2020-Sep-22 13:45 329 4 gusting 6 14.9
2020-Sep-22 13:40 309 3 gusting 6 14.8
2020-Sep-22 13:35 314 3 gusting 6 14.5
2020-Sep-22 13:30 318 2 gusting 4 14.1
2020-Sep-22 13:25 324 3 gusting 5 13.8
2020-Sep-22 13:20 322 3 gusting 6 13.6
2020-Sep-22 13:15 326 3 gusting 5 13.4
2020-Sep-22 13:10 330 2 gusting 5 13.1
2020-Sep-22 13:05 341 2 gusting 5 13.0
2020-Sep-22 13:00 311 3 gusting 4 12.8
2020-Sep-22 12:55 317 2 gusting 4 12.8
2020-Sep-22 12:50 328 1 gusting 2 12.5
2020-Sep-22 12:45 321 1 gusting 3 12.1
2020-Sep-22 12:40 311 2 gusting 5 11.8
2020-Sep-22 12:35 330 2 gusting 5 11.4
2020-Sep-22 12:30 326 2 gusting 3 11.0
2020-Sep-22 12:25 297 1 gusting 2 10.3
2020-Sep-22 12:20 277 1 gusting 2 9.8
2020-Sep-22 12:15 282 0 gusting 1 9.2
2020-Sep-22 12:10 276 1 gusting 1 8.6
2020-Sep-22 12:05 276 0 gusting 1 8.1
2020-Sep-22 12:00 7.7
2020-Sep-22 11:55 7.5
2020-Sep-22 11:50 7.3
2020-Sep-22 11:45 7.0
2020-Sep-22 11:40 6.6
2020-Sep-22 11:35 6.2
2020-Sep-22 11:30 5.9
2020-Sep-22 11:25 5.5
2020-Sep-22 11:20 5.3
2020-Sep-22 11:15 5.2
2020-Sep-22 11:10 288 0 gusting 0 4.9
2020-Sep-22 11:05 288 0 gusting 1 5.0
2020-Sep-22 11:00 289 1 gusting 1 5.0
2020-Sep-22 10:55 286 1 gusting 1 4.6
2020-Sep-22 10:50 282 1 gusting 1 4.8
2020-Sep-22 10:45 281 1 gusting 1 5.0
2020-Sep-22 10:40 277 1 gusting 1 4.9
2020-Sep-22 10:35 268 1 gusting 1 4.8
2020-Sep-22 10:30 275 1 gusting 1 5.1
2020-Sep-22 10:25 288 1 gusting 1 5.4
2020-Sep-22 10:20 286 1 gusting 1 5.1
2020-Sep-22 10:15 276 1 gusting 2 4.8
2020-Sep-22 10:10 271 1 gusting 1 4.9
2020-Sep-22 10:05 277 1 gusting 1 4.8
2020-Sep-22 10:00 283 1 gusting 1 4.4
2020-Sep-22 09:55 284 0 gusting 1 4.4
2020-Sep-22 09:50 280 0 gusting 1 4.4
2020-Sep-22 09:45 269 0 gusting 0 4.3
2020-Sep-22 09:40 275 0 gusting 1 4.1
2020-Sep-22 09:35 285 0 gusting 1 4.1
2020-Sep-22 09:30 284 0 gusting 1 4.3
2020-Sep-22 09:25 286 1 gusting 1 4.4
2020-Sep-22 09:20 284 0 gusting 1 4.6
2020-Sep-22 09:15 284 0 gusting 0 4.9
2020-Sep-22 09:10 284 0 gusting 0 4.8
2020-Sep-22 09:05 4.9
2020-Sep-22 09:00 297 0 gusting 1 5.0
2020-Sep-22 08:55 280 0 gusting 1 5.1
2020-Sep-22 08:50 283 1 gusting 2 5.1
2020-Sep-22 08:45 290 1 gusting 2 5.2
2020-Sep-22 08:40 308 0 gusting 1 5.1
2020-Sep-22 08:35 300 1 gusting 2 5.3
2020-Sep-22 08:30 304 1 gusting 1 5.3
2020-Sep-22 08:25 288 0 gusting 1 5.1
2020-Sep-22 08:20 287 0 gusting 1 5.2
2020-Sep-22 08:15 299 1 gusting 1 5.3
2020-Sep-22 08:10 311 1 gusting 1 5.6
2020-Sep-22 08:05 313 1 gusting 1 5.8
2020-Sep-22 08:00 298 0 gusting 1 6.0
2020-Sep-22 07:55 296 1 gusting 1 6.0
2020-Sep-22 07:50 297 1 gusting 1 5.8
2020-Sep-22 07:45 299 1 gusting 2 5.7
2020-Sep-22 07:40 299 1 gusting 2 5.5
2020-Sep-22 07:35 285 1 gusting 2 5.5
2020-Sep-22 07:30 293 1 gusting 2 5.5
2020-Sep-22 07:25 297 1 gusting 2 5.6
2020-Sep-22 07:20 296 1 gusting 2 5.7
2020-Sep-22 07:15 291 1 gusting 2 5.9
2020-Sep-22 07:10 290 1 gusting 1 6.0
2020-Sep-22 07:05 296 1 gusting 1 6.1
2020-Sep-22 07:00 300 1 gusting 2 6.1